Location: Branche des Alpilles
(43.6087°N, 4.6976°E)
Time: 17:07:38
(UTC+00:00)

USA 281 - Visible Passes

Search period start: 13 April 2021 00:00
Search period end: 23 April 2021 00:00
Orbit: 1076 x 1083 km, 106.0° (Epoch: 03 April)

Date Brightness Start Highest point End Pass type
(mag) Time Alt. Az. Time Alt. Az. Time Alt. Az.
13 Apr 4.8 01:04:41 21° WNW 01:04:41 21° WNW 01:07:14 10° NW visible
13 Apr 4.6 22:26:57 25° ENE 22:27:38 26° NE 22:32:51 10° N visible
14 Apr 4.0 00:13:48 44° NW 00:13:48 44° NW 00:18:09 10° NNW visible
14 Apr 5.4 21:36:05 10° ENE 21:38:55 13° NE 21:41:45 10° NNE visible
14 Apr 3.8 23:22:55 49° NNE 23:22:55 49° NNE 23:28:24 10° NNW visible
15 Apr 4.8 01:09:46 22° WNW 01:09:46 22° WNW 01:12:31 10° NW visible
15 Apr 4.6 22:32:01 25° ENE 22:32:56 26° NE 22:38:10 10° N visible
16 Apr 3.9 00:18:52 47° NW 00:18:52 47° NW 00:23:28 10° NNW visible
16 Apr 5.4 21:41:21 10° ENE 21:44:12 13° NE 21:47:05 10° NNE visible
16 Apr 3.8 23:27:59 51° NE 23:27:59 51° NE 23:33:43 10° NNW visible
17 Apr 4.7 01:14:50 23° WNW 01:14:50 23° WNW 01:17:49 10° NW visible
17 Apr 4.6 22:37:05 25° ENE 22:38:14 26° NE 22:43:29 10° N visible
18 Apr 3.7 00:23:56 51° NW 00:23:56 51° NW 00:28:46 10° NNW visible
18 Apr 5.4 21:46:36 10° ENE 21:49:31 13° NE 21:52:25 10° NNE visible
18 Apr 3.7 23:33:02 53° NE 23:33:02 53° NE 23:39:01 10° NNW visible
19 Apr 4.6 01:19:53 24° WNW 01:19:53 24° WNW 01:23:07 10° NW visible
19 Apr 4.7 22:42:08 24° ENE 22:43:32 26° NE 22:48:48 10° N visible
20 Apr 3.6 00:28:59 54° NW 00:28:59 54° NW 00:34:04 10° NNW visible
20 Apr 5.4 21:51:52 10° ENE 21:54:48 13° NE 21:57:44 10° NNE visible
20 Apr 3.7 23:38:05 54° NE 23:38:05 54° NE 23:44:20 10° NNW visible
21 Apr 4.5 01:24:56 25° WNW 01:24:56 25° WNW 01:28:24 10° NW visible
21 Apr 4.7 22:47:10 24° ENE 22:48:50 26° NE 22:54:06 10° N visible
22 Apr 3.5 00:34:02 58° NW 00:34:02 58° NW 00:39:23 10° NNW visible
22 Apr 5.4 21:57:08 10° ENE 22:00:06 14° NE 22:03:04 10° NNE visible
22 Apr 3.6 23:43:07 54° ENE 23:43:16 54° ENE 23:49:39 10° NNW visible
